[Date Prev][Date Next][Thread Prev][Thread Next] - [Date Index][Thread Index][Author Index]

2 Line ISS Kepe 10-27



ISS
1 25544U 98067A   03300.12474537  .00022204  00000-0  24598-3 0  7077
2 25544  51.6307  75.1801 0006566  83.0861 263.5763 15.62877158281615


----
Via the sarex mailing list at AMSAT.ORG courtesy of AMSAT-NA.
To unsubscribe, send "unsubscribe sarex" to Majordomo@amsat.org



AMSAT Top AMSAT Home